Home   Weather   43°10'N, 88°01'W   Past weeks
Flag for USA

Past Weather in 43°10'N, 88°01'W, USA — Yesterday and Last 2 Weeks

Now
54 °F

Overcast.


Feels Like: 50 °F
Forecast: 50 / 42 °F
Wind: 10 mph from East

Location: Milwaukee / Timmerman

Current Time: May 21, 2019 at 3:50:11 pm

Latest Report: May 21, 2019 at 2:45 pm


Visibility: 10 mi

Pressure: 30.13 "Hg

Humidity: 51%

Dew Point: 36 °F

Location of 43°10'N, 88°01'WLocation

Past Weather in 43°10'N, 88°01'W — Graph

°F

43°10'N, 88°01'W Temperature Yesterday

Maximum temperature yesterday: 54 °F (at 11:45 am)
Minimum temperature yesterday: 41 °F (at 5:55 am)
Average temperature yesterday: 46 °F

High & Low Weather Summary for the Past Weeks

 TemperatureHumidityPressure
High75 °F (May 16, 3:45 pm)100% (May 9, 12:45 pm)30.33 "Hg (May 9, 12:45 pm)
Low36 °F (May 12, 5:35 am)20% (May 11, 5:45 pm)26.69 "Hg (May 9, 12:45 pm)
Average48 °F65%29.96 "Hg
* Reported May 6 1:45 pm — May 21 1:45 pm, 43°10'N, 88°01'W. Weather by CustomWeather, © 2019

Note: Actual official high and low records may vary slightly from our data, if they occured in-between our weather recording intervals... More about our weather records

Advertising

43°10'N, 88°01'W Weather History for the Previous 24 Hours

Scroll right to see more
 ConditionsComfort  
Time TempWeatherWind HumidityBarometerVisibility
1:45 pm
Tue, May 21
52 °FScattered clouds.9 mph54%30.17 "Hg10 mi
12:45 pm48 °FMostly cloudy.10 mph62%30.19 "Hg10 mi
11:45 am48 °FPartly sunny.12 mph62%30.19 "Hg10 mi
10:45 am48 °FSunny.9 mph58%30.18 "Hg10 mi
9:45 am48 °FSunny.13 mph58%30.18 "Hg10 mi
8:45 am48 °FSunny.9 mph58%30.18 "Hg10 mi
7:45 am46 °FSunny.8 mph62%30.17 "Hg10 mi
7:15 am45 °FSunny.12 mph61%30.15 "Hg10 mi
7:00 am45 °FSunny.6 mph66%30.16 "Hg10 mi
6:35 am45 °FSunny.5 mph61%30.16 "Hg10 mi
6:15 am45 °FSunny.No wind61%30.17 "Hg10 mi
5:55 am45 °FSunny.3 mph61%30.16 "Hg10 mi
5:35 am45 °FSunny.7 mph61%30.14 "Hg10 mi
5:15 am43 °FClear.5 mph66%30.14 "Hg10 mi
4:55 am43 °FClear.6 mph66%30.14 "Hg10 mi
4:35 am43 °FClear.3 mph66%30.17 "Hg10 mi
4:15 am43 °FClear.3 mph66%30.16 "Hg10 mi
3:55 am43 °FClear.6 mph66%30.15 "Hg10 mi
3:35 am43 °FClear.6 mph71%30.15 "Hg10 mi
3:15 am43 °FClear.5 mph71%30.17 "Hg10 mi
2:55 am43 °FClear.5 mph71%30.17 "Hg10 mi
2:35 am43 °FClear.3 mph76%30.18 "Hg10 mi
2:15 am43 °FClear.No wind76%30.19 "Hg10 mi
1:55 am41 °FClear.No wind81%30.20 "Hg10 mi
1:35 am41 °FClear.No wind76%30.19 "Hg10 mi
1:15 am41 °FClear.No wind76%30.18 "Hg10 mi
12:55 am41 °FClear.No wind76%30.17 "Hg10 mi
12:35 am41 °FClear.No wind76%30.18 "Hg10 mi
12:15 am41 °FClear.No wind76%30.18 "Hg10 mi
11:55 pm
Mon, May 20
43 °FClear.No wind71%30.18 "Hg10 mi
11:35 pm43 °FClear.No wind71%30.18 "Hg10 mi
11:15 pm43 °FClear.No wind71%30.17 "Hg10 mi
10:55 pm43 °FClear.No wind71%30.18 "Hg10 mi
10:35 pm43 °FClear.No wind71%30.18 "Hg10 mi
10:15 pm45 °FClear.No wind61%30.19 "Hg10 mi
9:55 pm46 °FClear.No wind57%30.18 "Hg10 mi
9:35 pm45 °FClear.No wind61%30.17 "Hg10 mi
9:15 pm45 °FClear.No wind61%30.16 "Hg10 mi
8:55 pm46 °FClear.No wind57%30.15 "Hg10 mi
7:45 pm48 °FSunny.5 mph54%30.15 "Hg10 mi
6:45 pm50 °FScattered clouds.5 mph54%30.18 "Hg10 mi
5:45 pm52 °FOvercast.6 mph54%30.17 "Hg10 mi
4:45 pm54 °FBroken clouds.7 mph51%30.13 "Hg10 mi
3:45 pm54 °FOvercast.No wind51%30.12 "Hg10 mi
Weather by CustomWeather, © 2019

See weather overview